SCP
0 0 0 0 0 0 0 0 0 0 0 0 0 0 0 0 0 0 0 0 0 0 0 0 0 0 0 0 0 0 0 0 0 0 0 0 0 0
0 0 0 0 0 0 0 0 0 0 0 0 0 0 0 0 0 0 0 0 0 0 0 0 0 0 0 0 0 0 0 0 0 0 0 0 0 0
0 0 0 0 0 0 0 0 0 0 0 0 0 0 0 0 0 0 0 0 0 0 0 0 0 0 0 0 0 0 0 0 0 0 0 0 0 0
0 0 0 0 0 0 0 0 0 0 0 0 0 0 0 0 0 0 0 0 0 0 0 0 0 0 0 0 0 0 0 0 0 0 0 0 0 0
0 0 0 0 0 0 0 0 0 0 0 0 0 0 0 0 0 0 0 0 0 0 0 0 0 0 0 0 0 0 0 0 0 0 0 0 0 0
0 0 0 0 0 0 0 0 0 0 0 0 0 0 0 0 0 0 0 0 0 0 0 0 0 0 0 0 0 0 0 0 0 0 0 0 0 0
0 0 0 0 0 0 0 0 0 0 0 0 0 0 0 0 0 0 0 0 0 0 0 0 0 0 0 0 0 0 0 0 0 0 0 0 0 0
0 0 0 0 0 0 0 0 0 0 0 0 0 0 0 0 0 0 0 0 0 0 0 0 0 0 0 0 0 0 0 0 0 0 0 0 0 0
0 0 0 0 0 0 0 0 0 0 0 0 0 0 0 0 0 0 0 0 0 0 0 0 0 0 0 0 0 0 0 0 0 0 0 0 0 0
0 0 0 0 0 0 0 0 0 0 0 0 0 0 0 0 0 0 0 0 0 0 0 0 0 0 0 0 0 0 0 0 0 0 0 0 0 0
0 0 0 0 0 0 0 0 0 0 0 0 0 0 0 0 0 0 0 0 0 0 0 0 0 0 0 0 0 0 0 0 0 0 0 0 0 0
0 0 0 0 0 0 0 0 0 0 0 0 0 0 0 0 0 0 0 0 0 0 0 0 0 0 0 0 0 0 0 0 0 0 0 0 0 0
0 0 0 0 0 0 0 0 0 0 0 0 0 0 0 0 0 0 0 0 0 0 0 0 0 0 0 0 0 0 0 0 0 0 0 0 0 0
0 0 0 0 0 0 0 0 0 0 0 0 0 0 0 0 0 0 0 0 0 0 0 0 0 0 0 0 0 0 0 0 0 0 0 0 0 0
0 0 0 0 0 0 0 0 0 0 0 0 0 0 0 0 0 0 0 0 0 0 0 0 0 0 0 0 0 0 0 0 0 0 0 0 0 0
0 0 0 0 0 0 0 0 0 0 0 0 0 0 0 0 0 0 0 0 0 0 0 0 0 0 0 0 0 0 0 0 0 0 0 0 0 0
0 0 0 0 0 0 0 0 0 0 0 0 0 0 0 0 0 0 0 0 0 0 0 0 0 0 0 0 0 0 0 0 0 0 0 0 0 0
0 0 0 0 0 0 0 0 0 0 0 0 0 0 0 0 0 0 0 0 0 0 0 0 0 0 0 0 0 0 0 0 0 0 0 0 0 0
0 0 0 0 0 0 0 0 0 0 0 0 0 0 0 0 0 0 0 0 0 0 0 0 0 0 0 0 0 0 0 0 0 0 0 0 0 0
0 0 0 0 0 0 0 0 0 0 0 0 0 0 0 0 0 0 0 0 0 0 0 0 0 0 0 0 0 0 0 0 0 0 0 0 0 0
0 0 0 0 0 0 0 0 0 0 0 0 0 0 0 0 0 0 0 0 0 0 0 0 0 0 0 0 0 0 0 0 0 0 0 0 0 0
0 0 0 0 0 0 0 0 0 0 0 0 0 0 0 0 0 0 0 0 0 0 0 0 0 0 0 0 0 0 0 0 0 0 0 0 0 0
0 0 0 0 0 0 0 0 0 0 0 0 0 0 0 0 0 0 0 0 0 0 0 0 0 0 0 0 0 0 0 0 0 0 0 0 0 0
Wind_Speed
4 3 2 2 2 2 2 3 4 2 2 2 1 1 0 1 0 0 0 2 3 4 5 6 6 6 6 7 7 8 8 9 10 11 11 11 12 13
3 4 3 2 2 2 2 2 2 3 2 2 2 1 1 0 1 0 1 2 3 4 5 5 6 6 6 7 8 8 9 9 10 11 12 12 13 13
4 5 4 4 3 3 2 2 2 2 3 1 1 1 1 0 1 1 1 1 2 4 5 6 7 7 7 8 8 9 9 10 10 11 12 12 13 13
5 5 5 4 4 3 3 3 2 2 3 2 1 1 1 2 2 2 2 2 2 4 6 7 7 7 8 8 9 9 9 10 10 11 12 12 13 13
5 5 5 5 5 3 3 3 2 2 2 3 2 1 1 1 1 1 2 2 2 4 5 6 7 8 9 9 9 9 9 10 10 11 12 12 13 14
4 4 4 5 5 5 4 4 3 2 2 2 2 1 1 1 1 1 2 2 2 3 4 5 6 8 9 10 9 9 9 10 11 11 12 12 13 13
3 3 3 4 5 4 4 4 4 3 3 3 2 1 2 1 2 2 2 2 3 2 2 3 3 3 4 7 8 9 9 10 11 11 12 12 13 14
4 3 3 4 5 5 5 5 6 5 5 4 3 3 4 3 2 1 1 2 3 2 2 4 2 3 4 3 7 9 10 10 10 11 12 13 13 14
4 3 3 3 4 3 4 4 5 7 7 5 5 5 4 4 3 2 2 3 4 3 2 4 3 4 4 5 9 10 10 10 10 12 13 13 13 14
4 4 4 3 4 3 3 3 3 4 5 4 4 4 3 3 3 3 3 2 2 2 1 4 3 3 4 4 8 9 9 10 11 12 13 13 13 14
3 3 4 4 5 5 3 3 2 2 2 3 3 3 3 3 2 1 1 1 3 3 2 2 3 4 3 4 5 7 8 10 12 13 13 13 14 14
2 2 4 5 5 5 4 4 4 3 2 1 0 1 2 2 3 3 3 2 2 3 2 1 2 2 4 3 2 3 4 9 11 12 13 14 14 8
2 2 2 5 5 5 4 4 5 3 2 2 1 1 0 1 1 1 1 2 3 4 2 1 2 2 3 4 3 3 3 3 4 7 10 13 14 10
3 2 2 4 4 4 3 3 3 2 2 1 1 1 1 1 1 1 1 1 2 4 3 2 2 3 3 5 5 4 3 4 4 4 4 9 10 13
1 2 2 3 3 2 3 2 2 1 2 2 2 2 1 1 1 0 1 1 2 3 3 2 3 3 3 5 5 5 5 5 3 3 4 5 5 5
1 2 2 2 1 1 1 1 1 1 1 2 1 1 1 1 1 1 1 1 2 3 2 3 3 3 4 5 5 6 5 4 4 4 5 5 5 4
2 1 1 1 1 1 1 1 1 1 0 0 1 1 1 1 1 1 1 2 2 3 3 2 2 3 4 5 6 6 6 5 5 5 5 7 6 5
2 2 1 1 2 1 1 1 1 1 1 1 1 1 2 2 2 2 2 2 3 4 3 3 3 3 3 4 6 6 4 5 5 5 5 6 8 6
2 1 1 1 1 1 1 1 1 1 1 1 1 2 2 2 2 2 2 3 3 4 3 3 2 2 5 6 4 4 4 5 6 5 5 5 8 8
1 1 1 1 1 1 1 1 1 1 1 1 1 2 2 2 2 3 3 3 4 4 4 3 3 3 5 6 6 5 6 5 5 6 6 6 6 9
1 0 0 0 0 0 1 1 1 1 1 2 2 2 2 2 3 3 3 5 5 4 5 5 5 6 4 3 5 5 4 6 8 6 6 6 6 5
0 0 0 0 0 0 1 1 1 1 2 2 2 3 3 3 3 4 4 4 4 5 6 5 4 3 3 5 6 7 7 6 8 11 11 9 5 5
1 1 1 1 1 1 1 1 2 2 2 2 3 3 3 3 3 4 4 4 4 5 5 5 4 3 4 5 6 6 8 7 5 5 6 9 12 14
Wind_Direction
153 149 143 144 134 132 133 148 154 177 229 219 195 189 177 147 195 234 269 313 326 326 323 327 333 333 331 328 326 323 319 315 313 310 306 305 305 304
151 152 154 150 144 144 150 161 159 161 204 213 202 217 230 232 251 275 250 295 293 303 315 319 318 318 318 317 316 317 317 316 316 313 309 306 306 307
158 162 167 160 158 165 166 167 167 155 187 231 210 169 152 199 269 276 278 265 270 288 299 306 306 304 307 308 310 312 314 314 315 315 314 312 309 308
168 168 171 164 168 171 172 176 175 173 173 196 210 194 214 218 224 248 264 270 270 279 286 295 299 301 303 304 307 310 311 312 314 314 313 314 314 312
168 170 175 169 176 175 179 183 180 172 162 176 203 204 235 223 234 261 260 273 279 278 281 285 291 300 301 301 303 305 306 308 311 313 314 313 312 312
166 172 176 177 180 176 179 178 168 161 156 165 178 198 235 246 210 247 279 276 287 295 284 287 292 296 296 297 299 300 302 305 309 310 312 312 311 310
160 167 175 179 185 185 184 175 169 170 172 178 189 211 224 219 225 231 265 291 290 274 281 287 289 285 286 288 292 294 299 303 305 308 311 312 311 308
167 170 176 179 183 190 194 194 190 188 190 197 213 217 230 228 225 233 259 300 290 279 293 289 285 280 278 269 285 297 301 302 305 308 309 308 308 308
175 175 181 179 176 181 191 202 214 220 215 205 209 221 221 218 209 230 240 256 263 269 297 285 279 275 276 282 290 294 298 302 306 307 306 305 306 307
183 183 180 177 178 172 176 193 215 227 230 220 213 220 223 211 208 222 235 261 284 279 263 277 278 273 287 282 282 288 297 304 307 307 305 305 307 307
183 185 184 184 187 178 176 198 217 242 258 240 238 237 244 244 234 175 192 279 293 283 255 247 280 298 288 276 278 287 301 305 307 307 307 307 308 309
180 191 195 193 191 188 186 192 209 217 187 173 251 277 247 234 239 210 204 234 281 279 245 238 279 316 301 278 279 290 296 299 304 307 309 310 312 313
186 195 191 193 198 197 200 202 219 209 181 173 184 232 264 247 252 234 230 226 250 264 249 238 264 276 272 291 290 277 278 290 298 300 303 307 311 314
194 193 188 193 198 201 207 210 211 182 158 167 187 225 242 261 268 261 264 271 265 264 261 252 254 264 279 288 289 294 294 284 284 288 291 304 307 308
177 178 178 183 191 197 199 183 167 166 170 189 211 234 243 241 244 283 322 307 305 292 276 268 260 267 265 274 284 291 300 292 274 283 294 296 296 304
129 130 125 127 132 150 156 162 160 178 190 212 228 248 253 248 257 264 274 290 299 297 286 269 259 256 268 270 274 283 283 282 292 293 296 294 291 284
135 110 106 122 135 130 120 134 134 133 182 225 224 256 263 266 274 279 261 273 272 280 293 299 284 269 257 260 272 272 277 281 285 296 301 298 291 284
131 144 160 165 177 183 185 191 191 192 208 226 232 243 251 254 264 273 268 265 271 277 283 293 309 313 300 268 241 261 273 280 291 294 291 293 296 294
118 146 173 184 188 190 199 219 242 248 228 225 244 248 256 267 270 269 267 272 277 280 281 279 280 285 294 295 277 228 270 289 293 290 283 281 288 293
89 147 181 183 184 190 206 228 247 266 266 262 259 257 256 263 271 274 270 270 279 285 285 275 261 258 266 278 286 284 270 272 284 288 289 287 282 287
55 55 102 200 191 201 227 242 247 251 258 260 261 259 257 258 262 266 272 278 282 280 278 276 268 277 277 280 282 283 280 273 280 281 287 294 297 295
7 339 332 326 283 253 259 261 266 266 264 258 259 258 259 257 258 263 266 272 273 273 278 281 278 276 264 266 276 285 292 298 290 287 278 269 275 279
333 322 310 297 278 270 267 266 264 263 259 260 262 261 260 262 261 261 263 265 270 274 279 283 281 270 264 263 274 283 288 296 301 302 292 286 282 280